New Bern, NC

4:23 AM EST on February 12, 2016 (GMT -0500)
Craven County Regional

Weather History for KEWN - August, 2012

Change the Weather History Date:

Thursday, August 30, 2012

  Actual Average Record
Temperature  
Mean Temperature 79 °F 78 °F  
Max Temperature 88 °F 86 °F 95 °F (1956)
Min Temperature 70 °F 69 °F 50 °F (1965)
Degree Days  
Heating Degree Days 0 0  
Month to date heating degree days 0 0  
Since 1 June heating degree days 0 1  
Since 1 July heating degree days 0 0  
Cooling Degree Days 14 13  
Month to date cooling degree days 433 426  
Year to date cooling degree days 1661 1516  
Since 1 June cooling degree days 1296 1273  
Growing Degree Days 30 (Base 50)    
Moisture  
Dew Point 72 °F    
Average Humidity 75    
Maximum Humidity 100    
Minimum Humidity 50    
Precipitation  
Precipitation 0.00 in 0.19 in 4.02 in (1954)
Month to date precipitation 7.18 6.46  
Year to date precipitation 38.47 36.61  
Snow  
Snow 0.00 in - - ()
Month to date snowfall 0.0  
Since 1 July snowfall 0.0  
Snow Depth 0.00 in    
Sea Level Pressure  
Sea Level Pressure 30.09 in    
Wind  
Wind Speed 3 mph (SE)    
Max Wind Speed 13 mph    
Max Gust Speed 17 mph    
Visibility 7 miles    
Events Fog    
T = Trace of Precipitation, MM = Missing Value Source: NWS Daily Summary

Daily Weather History Graph

Daily Weather History Graph

Search for Another Location

Airport or City:

Trip Planner

Search our weather history database for the weather conditions in past years. The results will help you decide how hot, cold, wet, or windy it might be!

Date:

Astronomy

Aug. 30, 2012 Rise Set
Actual Time 6:39 AM EDT 7:36 PM EDT
Civil Twilight 6:13 AM EDT 8:02 PM EDT
Nautical Twilight 5:42 AM EDT 8:33 PM EDT
Astronomical Twilight 5:11 AM EDT 9:05 PM EDT
Moon 6:51 PM EDT (8/30) 5:38 AM EDT (8/30)
Length of Visible Light 13h 49m
Length of Day
12h 57m
Waxing Gibbous, 99% of the Moon is Illuminated
Aug 30
Waxing Gibbous
Aug 31
Full
Sep 8
Last Quarter
Sep 15
New
Sep 22
First Quarter

Hourly Weather History & Observations

Time (EDT) Temp. Heat Index Dew Point Humidity Pressure Visibility Wind Dir Wind Speed Gust Speed Precip Events Conditions
12:54 AM 75.9 °F - 73.9 °F 94% 30.03 in 6.0 mi Calm Calm - N/A   Scattered Clouds
1:54 AM 75.0 °F - 73.9 °F 96% 30.03 in 6.0 mi Calm Calm - N/A   Clear
2:54 AM 75.0 °F - 73.0 °F 94% 30.03 in 8.0 mi Calm Calm - N/A   Partly Cloudy
3:54 AM 73.9 °F - 73.0 °F 97% 30.02 in 6.0 mi Calm Calm - N/A   Clear
3:57 AM 73.4 °F - 73.4 °F 100% 30.02 in 2.5 mi Calm Calm - N/A   Partly Cloudy
4:02 AM 73.4 °F - 73.4 °F 100% 30.02 in 0.8 mi Calm Calm - N/A   Scattered Clouds
4:10 AM 73.4 °F - 73.4 °F 100% 30.03 in 0.5 mi Calm Calm - N/A Fog Fog
4:20 AM 73.4 °F - 73.4 °F 100% 30.02 in 0.8 mi Calm Calm - N/A   Mostly Cloudy
4:27 AM 73.4 °F - 73.4 °F 100% 30.03 in 1.2 mi Calm Calm - N/A   Overcast
4:31 AM 73.4 °F - 73.4 °F 100% 30.02 in 3.0 mi Calm Calm - N/A   Overcast
4:54 AM 75.0 °F - 73.9 °F 96% 30.02 in 7.0 mi Calm Calm - N/A   Overcast
5:54 AM 75.0 °F - 73.0 °F 94% 30.04 in 4.0 mi Calm Calm - N/A   Overcast
6:54 AM 75.0 °F - 72.0 °F 90% 30.06 in 10.0 mi NE 3.5 mph - N/A   Mostly Cloudy
7:54 AM 75.9 °F - 72.0 °F 87% 30.08 in 10.0 mi Calm Calm - N/A   Overcast
8:54 AM 77.0 °F - 72.0 °F 84% 30.09 in 10.0 mi Calm Calm - N/A   Overcast
9:54 AM 80.1 °F 83.8 °F 72.0 °F 76% 30.12 in 10.0 mi East 5.8 mph - N/A   Mostly Cloudy
10:54 AM 82.0 °F 84.9 °F 68.0 °F 62% 30.14 in 10.0 mi East 4.6 mph - N/A   Clear
11:54 AM 84.0 °F 89.0 °F 71.1 °F 65% 30.14 in 10.0 mi SE 6.9 mph - N/A   Clear
12:54 PM 84.0 °F 89.0 °F 71.1 °F 65% 30.14 in 10.0 mi SE 8.1 mph 17.3 mph N/A   Scattered Clouds
1:54 PM 86.0 °F 90.7 °F 70.0 °F 59% 30.15 in 10.0 mi ESE 10.4 mph - N/A   Mostly Cloudy
2:54 PM 87.1 °F 89.9 °F 66.9 °F 51% 30.14 in 10.0 mi ESE 8.1 mph - N/A   Clear
3:54 PM 87.1 °F 92.0 °F 70.0 °F 57% 30.13 in 10.0 mi SSE 8.1 mph - N/A   Scattered Clouds
4:54 PM 84.9 °F 90.7 °F 72.0 °F 65% 30.14 in 10.0 mi SSW 9.2 mph - N/A   Partly Cloudy
5:54 PM 84.0 °F 89.0 °F 71.1 °F 65% 30.14 in 10.0 mi SSW 6.9 mph 16.1 mph N/A   Clear
6:54 PM 81.0 °F 85.2 °F 72.0 °F 74% 30.14 in 10.0 mi SSW 4.6 mph - N/A   Clear
7:54 PM 75.2 °F - 73.4 °F 94% 30.14 in 10.0 mi Calm Calm - N/A   Clear
9:54 PM 73.0 °F - 71.1 °F 93% 30.17 in 10.0 mi Calm Calm - N/A   Clear
10:54 PM 72.0 °F - 70.0 °F 93% 30.18 in 10.0 mi Calm Calm - N/A   Clear
11:54 PM 72.0 °F - 70.0 °F 93% 30.18 in 9.0 mi Calm Calm - N/A   Clear